SCP
-0 -0 -0 0 -0 0 0 0 0 -0 -0 -0 -0 -0 -0 -0 -0 -0 -0 -0 -0 -0 -0 -0 -0 -0 -0 -0 0 0 0 0 0 0 0 0 -0 -0 -0 -0 -0 -0 0
-0 -0 -0 -0 0 0 0 0 0 -0 -0 -0 -0 -0 -0 -0 -0 -0 -0 0 -0 -0 -0 -0 -0 -0 -0 0 0 0 0 0 0 0 0 0 -0 0 0 0 0 0 0
0 -0 0 -0 0 0 0 0 0 -0 -0 -0 -0 -0 -0 -0 -0 -0 -0 -0 -0 -0 -0 -0 -0 -0 0 0 0 0 0 0 0 0 0 0 -0 -0 -0 0 0 0 0
0 0 0 -0 0 -0 0 -0 -0 -0 -0 -0 -0 -0 -0 -0 -0 -0 -0 -0 -0 -0 0 0 0 0 0 0 0 0 0 0 0 0 0 0 0 0 0 0 0 0 0
0 0 0 -0 -0 -0 -0 -0 -0 -0 -0 -0 -0 -0 -0 -0 -0 -0 -0 -0 0 0 0 -0 -0 -0 -0 -0 -0 -0 -0 -0 -0 -0 -0 -0 -0 -0 0 0 0 0 0
0 0 0 0 -0 -0 -0 -0 -0 -0 -0 -0 -0 -0 -0 -0 0 0 0 0 -0 -0 -0 -0 -0 -0 -0 -0 -0 -0 -0 -0 -0 -0 -0 -0 -0 -0 -0 0 0 0 0
0 0 0 0 -0 -0 -0 -0 -0 -0 -0 -0 -0 -0 -0 -0 -0 -0 -0 0 -0 -0 -0 -0 -0 -0 -0 -0 -0 -0 -0 -0 -0 -0 -0 -0 -0 -0 -0 0 0 0 0
0 0 0 0 0 -0 -0 -0 -0 -0 -0 -0 -0 -0 -0 -0 -0 -0 -0 -0 -0 -0 -0 -0 -0 -0 -0 -0 -0 -0 -0 -0 0 0 0 0 0 -0 0 -0 0 0 0
0 0 0 0 0 0 -0 -0 -0 -0 -0 -0 -0 -0 -0 -0 -0 0 0 -0 -0 -0 -0 -0 -0 -0 -0 -0 -0 -0 -0 0 0 0 0 0 0 0 0 0 0 0 0
0 0 0 0 0 0 0 0 -0 -0 -0 -0 -0 -0 -0 -0 0 0 0 -0 -0 -0 -0 -0 -0 -0 -0 -0 -0 -0 -0 -0 0 0 0 0 0 0 0 0 0 0 0
0 0 0 0 0 0 0 0 0 -0 -0 -0 -0 -0 0 0 0 0 0 -0 -0 -0 -0 -0 -0 -0 -0 0 0 0 0 0 0 0 0 0 0 0 0 0 0 0 0
0 0 0 0 0 0 0 0 0 0 0 0 0 0 0 0 0 0 0 -0 0 0 0 0 0 0 0 0 0 0 0 0 0 0 0 0 0 0 0 0 0 0 0
0 0 0 0 0 0 0 0 0 0 0 0 0 0 0 0 0 0 0 0 0 0 0 0 0 0 0 0 0 0 0 0 0 0 0 0 0 0 0 0 0 0 0
0 0 0 0 0 0 0 0 0 0 0 0 0 0 0 0 0 0 0 0 0 0 0 0 0 0 0 0 0 0 0 0 0 0 0 0 0 0 0 0 0 0 0
0 0 0 0 0 0 0 0 0 0 0 0 0 0 0 0 0 0 0 0 0 0 0 0 0 0 0 0 0 0 0 0 0 0 0 0 0 0 0 0 0 0 0
0 0 0 0 0 0 0 0 0 0 0 0 0 0 0 0 0 0 0 0 0 0 0 0 0 0 0 0 0 0 0 0 0 0 0 0 0 0 0 0 0 0 0
0 0 0 0 0 0 0 0 0 0 0 0 0 0 0 0 0 0 0 0 0 0 0 0 0 0 0 0 0 0 0 0 0 0 0 0 0 0 0 0 0 0 0
0 0 0 0 0 0 0 0 0 0 0 0 0 0 0 0 0 0 0 0 0 0 0 0 0 0 0 0 0 0 0 0 0 0 0 0 0 0 0 0 0 0 0
0 0 0 0 0 0 0 0 0 0 0 0 0 0 0 0 0 0 0 0 0 0 0 0 0 0 0 0 0 0 0 0 0 0 0 0 0 0 0 0 0 0 0
0 0 0 0 0 0 0 0 0 0 0 0 0 0 0 0 0 0 0 0 0 0 0 0 0 0 0 0 0 0 0 0 0 0 0 0 0 0 0 0 0 0 0
0 0 0 0 0 0 0 0 0 0 0 0 0 0 0 0 0 0 0 0 0 0 0 0 0 0 0 0 0 0 0 0 0 0 0 0 0 0 0 0 0 0 0
0 0 0 0 0 0 0 0 0 0 0 0 0 0 0 0 0 0 0 0 0 0 0 0 0 0 0 0 0 0 0 0 0 0 0 0 0 0 0 0 0 0 0
0 0 0 0 0 0 0 0 0 0 0 0 0 0 0 0 0 0 0 0 0 0 0 0 0 0 0 0 0 0 0 0 0 0 0 0 0 0 0 0 0 0 0
0 0 0 0 0 0 0 0 0 0 0 0 0 0 0 0 0 0 0 0 0 0 0 0 0 0 0 0 0 0 0 0 0 0 0 0 0 0 0 0 0 0 0
0 0 0 0 0 0 0 0 0 0 0 0 0 0 0 0 0 0 0 0 0 0 0 0 0 0 0 0 0 0 0 0 0 0 0 0 0 0 0 0 0 0 0
0 0 0 0 0 0 0 0 0 0 0 0 0 0 0 0 0 0 0 0 0 0 0 0 0 0 0 0 0 0 0 0 0 0 0 0 0 0 0 0 0 0 0
Wind_Speed_500mb
32 26 30 27 26 24 29 29 28 23 19 17 16 22 20 20 23 28 26 25 27 26 26 28 28 28 26 25 26 26 27 27 27 27 27 27 27 26 26 25 24 22 20
36 33 33 30 25 26 28 29 26 21 21 18 14 19 21 22 24 25 25 26 26 28 29 28 26 24 23 22 22 23 23 24 25 23 23 24 26 25 26 24 23 23 24
35 38 33 29 25 19 23 26 25 25 24 18 14 19 19 21 25 25 27 28 28 28 27 26 25 23 21 19 17 19 19 21 21 23 22 22 25 27 27 26 22 21 21
36 40 35 30 21 14 26 32 27 30 28 16 14 17 17 21 25 26 26 26 25 25 24 24 22 21 20 17 15 15 17 20 21 22 20 21 25 27 31 33 30 25 20
38 38 35 30 21 23 34 37 29 35 25 13 12 13 18 22 24 25 24 24 24 24 24 26 27 26 23 20 19 18 19 20 22 23 23 23 24 27 27 34 35 34 30
39 37 35 31 25 26 32 33 36 34 22 6 7 12 17 19 22 22 22 23 25 28 29 31 32 33 33 33 29 26 23 23 24 23 22 22 23 24 25 29 31 30 30
42 38 35 32 29 28 33 35 35 28 14 4 5 11 16 18 19 20 22 25 28 29 30 30 29 29 28 28 27 25 24 23 22 21 22 22 22 24 24 25 30 32 31
42 41 36 33 30 29 28 28 25 19 12 8 11 14 17 18 19 22 26 28 27 27 26 24 23 23 21 19 18 19 19 18 19 18 19 21 23 25 27 27 29 32 33
43 43 38 33 31 27 25 23 20 16 12 13 16 16 17 18 22 25 26 26 24 22 20 18 18 18 17 16 16 16 19 17 17 19 20 20 22 26 29 30 31 34 36
46 44 40 35 32 29 25 21 19 18 18 19 19 17 16 20 24 25 23 21 19 16 13 12 12 14 17 20 21 23 23 21 19 21 23 22 23 25 28 28 29 32 35
49 46 41 35 32 29 24 23 23 23 22 22 20 19 22 24 23 21 18 15 13 11 8 10 13 16 19 22 27 27 27 24 23 26 28 28 19 19 24 27 25 28 31
55 52 44 38 33 29 25 24 25 25 24 22 20 21 24 23 20 16 13 11 8 5 8 13 16 21 27 31 30 32 29 27 26 29 28 26 19 16 20 24 28 31 27
55 54 48 40 34 27 27 28 28 27 25 23 21 22 22 20 17 13 9 6 1 4 11 17 20 24 31 36 33 31 28 25 24 24 26 26 22 17 21 23 28 22 24
56 55 49 40 34 30 31 30 29 27 24 21 20 20 19 17 14 11 7 4 6 11 16 21 24 28 34 35 30 26 27 26 25 26 27 26 20 15 16 12 11 16 17
52 55 49 41 35 30 33 32 30 25 21 20 18 18 19 16 13 10 6 3 6 11 17 24 26 28 32 30 27 25 25 26 28 26 24 21 18 17 17 18 25 29 27
48 54 48 40 38 31 33 32 27 23 22 21 19 19 19 15 14 13 8 8 10 15 19 27 31 34 32 23 23 25 27 27 23 19 17 17 17 16 15 17 24 27 26
48 49 48 38 41 32 31 29 27 22 22 22 18 15 15 12 14 9 11 10 17 20 26 32 30 29 25 22 22 23 25 22 17 14 14 12 13 16 17 20 23 25 31
48 49 48 41 39 34 34 33 27 29 23 23 21 17 16 16 13 16 16 18 22 25 31 32 31 27 24 22 22 24 22 16 14 14 13 13 15 18 22 23 27 31 33
48 50 48 43 38 39 41 38 36 34 30 25 23 21 21 20 20 21 22 25 29 32 34 34 28 25 22 22 24 20 14 12 10 8 11 14 20 24 25 27 28 28 28
48 48 45 42 44 45 44 40 38 37 35 31 27 27 24 27 24 27 28 32 33 30 27 23 23 20 22 23 24 20 10 10 7 8 15 22 25 25 25 22 20 21 23
51 52 50 49 52 47 47 43 41 38 38 38 34 29 33 31 36 34 35 32 26 18 15 15 13 14 16 19 22 18 12 14 14 13 18 22 26 26 23 22 21 20 23
56 57 57 54 53 50 48 46 44 43 39 35 37 38 38 36 34 29 22 15 11 7 7 11 16 26 31 31 22 20 8 14 16 20 19 21 28 26 24 24 23 28 39
66 63 60 58 57 55 51 50 50 44 40 43 43 42 35 30 23 12 6 0 6 12 22 32 36 34 24 16 12 7 7 5 17 14 14 22 31 28 25 25 27 30 36
66 62 63 59 59 62 61 59 57 52 56 51 41 33 25 16 9 11 6 5 14 26 33 31 19 16 16 13 11 9 8 12 8 9 12 20 29 23 20 26 28 31 38
67 65 64 63 61 69 69 64 62 63 58 52 43 33 21 19 14 9 16 27 29 20 12 14 17 18 18 16 14 11 10 11 14 16 19 34 30 30 25 29 35 32 44
69 67 67 67 67 69 74 69 67 65 61 47 33 23 17 13 9 15 13 8 8 10 13 16 17 18 19 19 16 14 14 14 17 19 25 33 35 31 27 31 30 45 52
Wind_Direction_500mb
164 158 150 150 141 148 151 154 148 154 143 120 74 57 64 81 90 91 96 87 81 83 81 77 74 72 70 68 69 68 67 63 61 56 52 50 48 43 40 33 26 23 26
155 153 151 155 151 150 154 156 153 151 145 124 78 62 72 88 95 95 92 87 83 79 77 74 72 70 68 64 59 58 57 55 55 50 44 45 40 33 23 21 18 14 11
155 153 154 157 154 158 171 166 156 155 150 130 75 58 75 92 94 92 88 85 81 80 79 77 74 71 67 62 58 56 49 48 42 38 37 38 36 31 24 16 9 5 5
157 155 155 157 152 153 166 165 157 158 153 134 70 60 77 92 92 92 88 88 87 82 76 71 67 61 57 54 55 53 41 33 28 27 35 48 45 39 28 25 19 8 360
162 159 159 156 140 135 148 156 155 157 157 133 72 79 100 105 104 97 94 88 82 77 74 71 68 63 56 51 51 47 43 35 36 40 45 43 40 36 29 25 23 21 18
163 162 163 157 145 133 146 153 153 159 160 135 83 107 111 108 106 97 93 88 85 82 79 77 70 65 61 58 59 54 49 43 43 44 41 36 31 27 27 19 16 14 13
166 165 165 162 156 143 141 146 154 165 177 185 117 124 115 109 101 95 94 92 88 85 82 76 69 64 59 55 52 48 40 30 23 20 18 16 13 9 8 8 8 7 4
172 169 167 167 167 164 162 165 173 188 197 183 152 139 124 113 105 104 102 98 94 88 82 76 67 58 52 47 41 32 23 14 7 3 360 359 358 357 354 357 358 358 356
180 176 174 174 175 176 180 184 188 192 189 171 157 144 130 120 117 115 112 108 99 88 80 70 61 52 42 32 19 7 359 350 347 346 343 344 350 351 352 351 353 348 344
184 183 180 180 181 183 187 190 188 187 177 165 154 146 138 133 128 126 121 113 98 85 78 64 45 27 16 5 352 347 343 338 329 327 327 324 333 339 345 343 345 330 331
184 186 185 183 180 183 190 191 184 176 169 161 157 153 148 141 137 133 124 115 106 89 63 31 16 360 350 347 338 334 333 326 327 327 322 315 310 327 333 333 331 330 333
186 184 187 186 186 186 189 186 180 172 166 163 162 158 153 150 147 144 136 126 108 73 23 360 346 343 341 338 335 336 331 326 322 324 326 329 318 314 317 321 323 326 326
188 188 186 190 192 193 188 182 177 173 169 168 169 166 163 162 163 164 156 140 102 338 351 342 336 333 332 333 328 325 329 331 330 327 317 323 327 321 310 319 329 339 344
189 192 189 192 194 189 187 181 179 174 171 172 173 172 171 175 178 175 174 192 339 343 333 330 326 327 329 332 331 326 328 333 330 324 320 322 316 315 313 320 332 340 350
194 192 192 193 191 188 184 182 178 178 177 178 176 180 181 182 187 193 210 271 327 323 321 322 322 324 328 329 326 329 332 333 328 324 325 325 322 313 305 297 320 330 331
194 190 188 187 184 185 185 182 180 180 179 178 183 188 189 192 204 220 259 282 304 307 311 313 323 326 330 334 328 327 330 337 339 333 327 319 315 308 304 309 322 336 358
192 187 188 183 180 181 181 175 175 177 188 190 191 191 198 203 219 228 263 283 298 304 304 308 319 325 323 324 320 322 325 329 329 321 314 308 306 306 311 321 322 310 306
192 188 183 181 179 177 177 179 188 197 202 196 201 195 206 217 235 258 274 286 296 300 293 299 307 303 305 309 313 315 320 317 313 307 308 313 317 318 316 314 312 312 317
195 194 191 188 182 181 183 192 203 208 210 212 211 213 218 232 252 267 282 288 296 297 298 295 297 292 293 312 321 321 313 302 304 325 329 339 341 338 337 332 331 329 329
199 199 198 195 193 192 197 203 207 210 214 218 224 225 242 246 255 264 272 283 281 281 283 282 289 301 313 326 339 336 308 290 290 321 354 357 355 352 348 347 348 351 354
204 201 201 197 201 202 206 209 206 213 215 217 224 234 239 250 253 256 259 260 264 266 275 286 306 321 341 348 336 329 287 270 280 320 342 350 354 352 348 344 346 351 352
204 203 201 203 204 207 211 216 221 219 218 222 228 233 239 242 242 244 247 249 247 288 323 339 346 340 338 332 325 309 258 283 281 295 322 344 352 348 341 346 346 348 347
207 208 207 205 207 208 216 219 220 220 226 228 227 229 227 226 228 207 228 218 41 1 341 331 328 331 341 356 354 337 284 273 307 295 317 342 343 342 339 344 340 336 342
205 207 209 209 213 216 215 218 220 226 224 216 211 208 200 174 173 139 110 319 287 298 314 319 333 349 3 4 4 1 346 320 325 308 314 330 345 346 336 340 339 337 344
206 206 209 210 214 214 215 216 224 222 216 208 199 190 161 141 147 199 265 289 304 321 329 355 359 0 5 15 19 10 358 336 329 319 319 331 350 348 341 338 341 342 341
199 202 206 210 211 213 216 216 219 211 196 175 145 143 169 194 249 288 315 346 18 359 2 1 2 5 10 15 19 16 9 3 345 345 334 336 339 342 336 337 334 340 343
Wind_Speed_850mb
32 26 30 27 26 24 29 29 28 23 19 17 16 22 20 20 23 28 26 25 27 26 26 28 28 28 26 25 26 26 27 27 27 27 27 27 27 26 26 25 24 22 20
36 33 33 30 25 26 28 29 26 21 21 18 14 19 21 22 24 25 25 26 26 28 29 28 26 24 23 22 22 23 23 24 25 23 23 24 26 25 26 24 23 23 24
35 38 33 29 25 19 23 26 25 25 24 18 14 19 19 21 25 25 27 28 28 28 27 26 25 23 21 19 17 19 19 21 21 23 22 22 25 27 27 26 22 21 21
36 40 35 30 21 14 26 32 27 30 28 16 14 17 17 21 25 26 26 26 25 25 24 24 22 21 20 17 15 15 17 20 21 22 20 21 25 27 31 33 30 25 20
38 38 35 30 21 23 34 37 29 35 25 13 12 13 18 22 24 25 24 24 24 24 24 26 27 26 23 20 19 18 19 20 22 23 23 23 24 27 27 34 35 34 30
39 37 35 31 25 26 32 33 36 34 22 6 7 12 17 19 22 22 22 23 25 28 29 31 32 33 33 33 29 26 23 23 24 23 22 22 23 24 25 29 31 30 30
42 38 35 32 29 28 33 35 35 28 14 4 5 11 16 18 19 20 22 25 28 29 30 30 29 29 28 28 27 25 24 23 22 21 22 22 22 24 24 25 30 32 31
42 41 36 33 30 29 28 28 25 19 12 8 11 14 17 18 19 22 26 28 27 27 26 24 23 23 21 19 18 19 19 18 19 18 19 21 23 25 27 27 29 32 33
43 43 38 33 31 27 25 23 20 16 12 13 16 16 17 18 22 25 26 26 24 22 20 18 18 18 17 16 16 16 19 17 17 19 20 20 22 26 29 30 31 34 36
46 44 40 35 32 29 25 21 19 18 18 19 19 17 16 20 24 25 23 21 19 16 13 12 12 14 17 20 21 23 23 21 19 21 23 22 23 25 28 28 29 32 35
49 46 41 35 32 29 24 23 23 23 22 22 20 19 22 24 23 21 18 15 13 11 8 10 13 16 19 22 27 27 27 24 23 26 28 28 19 19 24 27 25 28 31
55 52 44 38 33 29 25 24 25 25 24 22 20 21 24 23 20 16 13 11 8 5 8 13 16 21 27 31 30 32 29 27 26 29 28 26 19 16 20 24 28 31 27
55 54 48 40 34 27 27 28 28 27 25 23 21 22 22 20 17 13 9 6 1 4 11 17 20 24 31 36 33 31 28 25 24 24 26 26 22 17 21 23 28 22 24
56 55 49 40 34 30 31 30 29 27 24 21 20 20 19 17 14 11 7 4 6 11 16 21 24 28 34 35 30 26 27 26 25 26 27 26 20 15 16 12 11 16 17
52 55 49 41 35 30 33 32 30 25 21 20 18 18 19 16 13 10 6 3 6 11 17 24 26 28 32 30 27 25 25 26 28 26 24 21 18 17 17 18 25 29 27
48 54 48 40 38 31 33 32 27 23 22 21 19 19 19 15 14 13 8 8 10 15 19 27 31 34 32 23 23 25 27 27 23 19 17 17 17 16 15 17 24 27 26
48 49 48 38 41 32 31 29 27 22 22 22 18 15 15 12 14 9 11 10 17 20 26 32 30 29 25 22 22 23 25 22 17 14 14 12 13 16 17 20 23 25 31
48 49 48 41 39 34 34 33 27 29 23 23 21 17 16 16 13 16 16 18 22 25 31 32 31 27 24 22 22 24 22 16 14 14 13 13 15 18 22 23 27 31 33
48 50 48 43 38 39 41 38 36 34 30 25 23 21 21 20 20 21 22 25 29 32 34 34 28 25 22 22 24 20 14 12 10 8 11 14 20 24 25 27 28 28 28
48 48 45 42 44 45 44 40 38 37 35 31 27 27 24 27 24 27 28 32 33 30 27 23 23 20 22 23 24 20 10 10 7 8 15 22 25 25 25 22 20 21 23
51 52 50 49 52 47 47 43 41 38 38 38 34 29 33 31 36 34 35 32 26 18 15 15 13 14 16 19 22 18 12 14 14 13 18 22 26 26 23 22 21 20 23
56 57 57 54 53 50 48 46 44 43 39 35 37 38 38 36 34 29 22 15 11 7 7 11 16 26 31 31 22 20 8 14 16 20 19 21 28 26 24 24 23 28 39
66 63 60 58 57 55 51 50 50 44 40 43 43 42 35 30 23 12 6 0 6 12 22 32 36 34 24 16 12 7 7 5 17 14 14 22 31 28 25 25 27 30 36
66 62 63 59 59 62 61 59 57 52 56 51 41 33 25 16 9 11 6 5 14 26 33 31 19 16 16 13 11 9 8 12 8 9 12 20 29 23 20 26 28 31 38
67 65 64 63 61 69 69 64 62 63 58 52 43 33 21 19 14 9 16 27 29 20 12 14 17 18 18 16 14 11 10 11 14 16 19 34 30 30 25 29 35 32 44
69 67 67 67 67 69 74 69 67 65 61 47 33 23 17 13 9 15 13 8 8 10 13 16 17 18 19 19 16 14 14 14 17 19 25 33 35 31 27 31 30 45 52
Wind_Direction_850mb
164 158 150 150 141 148 151 154 148 154 143 120 74 57 64 81 90 91 96 87 81 83 81 77 74 72 70 68 69 68 67 63 61 56 52 50 48 43 40 33 26 23 26
155 153 151 155 151 150 154 156 153 151 145 124 78 62 72 88 95 95 92 87 83 79 77 74 72 70 68 64 59 58 57 55 55 50 44 45 40 33 23 21 18 14 11
155 153 154 157 154 158 171 166 156 155 150 130 75 58 75 92 94 92 88 85 81 80 79 77 74 71 67 62 58 56 49 48 42 38 37 38 36 31 24 16 9 5 5
157 155 155 157 152 153 166 165 157 158 153 134 70 60 77 92 92 92 88 88 87 82 76 71 67 61 57 54 55 53 41 33 28 27 35 48 45 39 28 25 19 8 360
162 159 159 156 140 135 148 156 155 157 157 133 72 79 100 105 104 97 94 88 82 77 74 71 68 63 56 51 51 47 43 35 36 40 45 43 40 36 29 25 23 21 18
163 162 163 157 145 133 146 153 153 159 160 135 83 107 111 108 106 97 93 88 85 82 79 77 70 65 61 58 59 54 49 43 43 44 41 36 31 27 27 19 16 14 13
166 165 165 162 156 143 141 146 154 165 177 185 117 124 115 109 101 95 94 92 88 85 82 76 69 64 59 55 52 48 40 30 23 20 18 16 13 9 8 8 8 7 4
172 169 167 167 167 164 162 165 173 188 197 183 152 139 124 113 105 104 102 98 94 88 82 76 67 58 52 47 41 32 23 14 7 3 360 359 358 357 354 357 358 358 356
180 176 174 174 175 176 180 184 188 192 189 171 157 144 130 120 117 115 112 108 99 88 80 70 61 52 42 32 19 7 359 350 347 346 343 344 350 351 352 351 353 348 344
184 183 180 180 181 183 187 190 188 187 177 165 154 146 138 133 128 126 121 113 98 85 78 64 45 27 16 5 352 347 343 338 329 327 327 324 333 339 345 343 345 330 331
184 186 185 183 180 183 190 191 184 176 169 161 157 153 148 141 137 133 124 115 106 89 63 31 16 360 350 347 338 334 333 326 327 327 322 315 310 327 333 333 331 330 333
186 184 187 186 186 186 189 186 180 172 166 163 162 158 153 150 147 144 136 126 108 73 23 360 346 343 341 338 335 336 331 326 322 324 326 329 318 314 317 321 323 326 326
188 188 186 190 192 193 188 182 177 173 169 168 169 166 163 162 163 164 156 140 102 338 351 342 336 333 332 333 328 325 329 331 330 327 317 323 327 321 310 319 329 339 344
189 192 189 192 194 189 187 181 179 174 171 172 173 172 171 175 178 175 174 192 339 343 333 330 326 327 329 332 331 326 328 333 330 324 320 322 316 315 313 320 332 340 350
194 192 192 193 191 188 184 182 178 178 177 178 176 180 181 182 187 193 210 271 327 323 321 322 322 324 328 329 326 329 332 333 328 324 325 325 322 313 305 297 320 330 331
194 190 188 187 184 185 185 182 180 180 179 178 183 188 189 192 204 220 259 282 304 307 311 313 323 326 330 334 328 327 330 337 339 333 327 319 315 308 304 309 322 336 358
192 187 188 183 180 181 181 175 175 177 188 190 191 191 198 203 219 228 263 283 298 304 304 308 319 325 323 324 320 322 325 329 329 321 314 308 306 306 311 321 322 310 306
192 188 183 181 179 177 177 179 188 197 202 196 201 195 206 217 235 258 274 286 296 300 293 299 307 303 305 309 313 315 320 317 313 307 308 313 317 318 316 314 312 312 317
195 194 191 188 182 181 183 192 203 208 210 212 211 213 218 232 252 267 282 288 296 297 298 295 297 292 293 312 321 321 313 302 304 325 329 339 341 338 337 332 331 329 329
199 199 198 195 193 192 197 203 207 210 214 218 224 225 242 246 255 264 272 283 281 281 283 282 289 301 313 326 339 336 308 290 290 321 354 357 355 352 348 347 348 351 354
204 201 201 197 201 202 206 209 206 213 215 217 224 234 239 250 253 256 259 260 264 266 275 286 306 321 341 348 336 329 287 270 280 320 342 350 354 352 348 344 346 351 352
204 203 201 203 204 207 211 216 221 219 218 222 228 233 239 242 242 244 247 249 247 288 323 339 346 340 338 332 325 309 258 283 281 295 322 344 352 348 341 346 346 348 347
207 208 207 205 207 208 216 219 220 220 226 228 227 229 227 226 228 207 228 218 41 1 341 331 328 331 341 356 354 337 284 273 307 295 317 342 343 342 339 344 340 336 342
205 207 209 209 213 216 215 218 220 226 224 216 211 208 200 174 173 139 110 319 287 298 314 319 333 349 3 4 4 1 346 320 325 308 314 330 345 346 336 340 339 337 344
206 206 209 210 214 214 215 216 224 222 216 208 199 190 161 141 147 199 265 289 304 321 329 355 359 0 5 15 19 10 358 336 329 319 319 331 350 348 341 338 341 342 341
199 202 206 210 211 213 216 216 219 211 196 175 145 143 169 194 249 288 315 346 18 359 2 1 2 5 10 15 19 16 9 3 345 345 334 336 339 342 336 337 334 340 343